Year,Month,Day,Hour,Minute,Value (Times are PST for temperature in C)
2014,09,14,00,00,12.30
2014,09,14,00,01,12.30
2014,09,14,00,02,12.30
2014,09,14,00,03,12.30
2014,09,14,00,04,12.30
2014,09,14,00,05,12.20
2014,09,14,00,06,12.20
2014,09,14,00,07,12.10
2014,09,14,00,08,12.10
2014,09,14,00,09,12.00
2014,09,14,00,10,11.90
2014,09,14,00,11,11.90
2014,09,14,00,12,11.80
2014,09,14,00,13,11.80
2014,09,14,00,14,11.80
2014,09,14,00,15,11.80
2014,09,14,00,16,11.80
2014,09,14,00,17,11.80
2014,09,14,00,18,11.70
2014,09,14,00,19,11.70
2014,09,14,00,20,11.60
2014,09,14,00,21,11.60
2014,09,14,00,22,11.60
2014,09,14,00,23,11.60
2014,09,14,00,24,11.60
2014,09,14,00,25,11.60
2014,09,14,00,26,11.60
2014,09,14,00,27,11.60
2014,09,14,00,28,11.60
2014,09,14,00,29,11.60
2014,09,14,00,30,11.60
2014,09,14,00,31,11.60
2014,09,14,00,32,11.60
2014,09,14,00,33,11.60
2014,09,14,00,34,11.50
2014,09,14,00,35,11.40
2014,09,14,00,36,11.40
2014,09,14,00,37,11.40
2014,09,14,00,38,11.40
2014,09,14,00,39,11.40
2014,09,14,00,40,11.30
2014,09,14,00,41,11.30
2014,09,14,00,42,11.30
2014,09,14,00,43,11.30
2014,09,14,00,44,11.20
2014,09,14,00,45,11.20
2014,09,14,00,46,11.20
2014,09,14,00,47,11.20
2014,09,14,00,48,11.20
2014,09,14,00,49,11.20
2014,09,14,00,50,11.20
2014,09,14,00,51,11.10
2014,09,14,00,52,11.10
2014,09,14,00,53,11.10
2014,09,14,00,54,11.10
2014,09,14,00,55,11.10
2014,09,14,00,56,11.10
2014,09,14,00,57,11.10
2014,09,14,00,58,11.10
2014,09,14,00,59,11.10
2014,09,14,01,00,11.10
2014,09,14,01,01,11.10
2014,09,14,01,02,11.10
2014,09,14,01,03,11.10
2014,09,14,01,04,11.10
2014,09,14,01,05,11.10
2014,09,14,01,06,11.10
2014,09,14,01,07,11.10
2014,09,14,01,08,11.10
2014,09,14,01,09,11.10
2014,09,14,01,10,11.00
2014,09,14,01,11,10.90
2014,09,14,01,12,10.90
2014,09,14,01,13,10.90
2014,09,14,01,14,10.90
2014,09,14,01,15,11.00
2014,09,14,01,16,11.10
2014,09,14,01,17,11.10
2014,09,14,01,18,11.10
2014,09,14,01,19,11.10
2014,09,14,01,20,11.10
2014,09,14,01,21,11.10
2014,09,14,01,22,11.00
2014,09,14,01,23,10.90
2014,09,14,01,24,10.90
2014,09,14,01,25,10.90
2014,09,14,01,26,10.90
2014,09,14,01,27,10.90
2014,09,14,01,28,10.90
2014,09,14,01,29,10.90
2014,09,14,01,30,11.00
2014,09,14,01,31,11.10
2014,09,14,01,32,11.10
2014,09,14,01,33,11.10
2014,09,14,01,34,11.10
2014,09,14,01,35,11.00
2014,09,14,01,36,10.90
2014,09,14,01,37,10.90
2014,09,14,01,38,10.90
2014,09,14,01,39,10.90
2014,09,14,01,40,10.80
2014,09,14,01,41,10.80
2014,09,14,01,42,10.70
2014,09,14,01,43,10.70
2014,09,14,01,44,10.60
2014,09,14,01,45,10.60
2014,09,14,01,46,10.60
2014,09,14,01,47,10.60
2014,09,14,01,48,10.60
2014,09,14,01,49,10.60
2014,09,14,01,50,10.60
2014,09,14,01,51,10.60
2014,09,14,01,52,10.60
2014,09,14,01,53,10.60
2014,09,14,01,54,10.60
2014,09,14,01,55,10.60
2014,09,14,01,56,10.50
2014,09,14,01,57,10.40
2014,09,14,01,58,10.40
2014,09,14,01,59,10.40
2014,09,14,02,00,10.40
2014,09,14,02,01,10.40
2014,09,14,02,02,10.40
2014,09,14,02,03,10.40
2014,09,14,02,04,10.40
2014,09,14,02,05,10.40
2014,09,14,02,06,10.40
2014,09,14,02,07,10.40
2014,09,14,02,08,10.40
2014,09,14,02,09,10.40
2014,09,14,02,10,10.40
2014,09,14,02,11,10.40
2014,09,14,02,12,10.40
2014,09,14,02,13,10.40
2014,09,14,02,14,10.40
2014,09,14,02,15,10.30
2014,09,14,02,16,10.30
2014,09,14,02,17,10.30
2014,09,14,02,18,10.30
2014,09,14,02,19,10.40
2014,09,14,02,20,10.40
2014,09,14,02,21,10.40
2014,09,14,02,22,10.40
2014,09,14,02,23,10.40
2014,09,14,02,24,10.30
2014,09,14,02,25,10.30
2014,09,14,02,26,10.30
2014,09,14,02,27,10.30
2014,09,14,02,28,10.30
2014,09,14,02,29,10.20
2014,09,14,02,30,10.20
2014,09,14,02,31,10.20
2014,09,14,02,32,10.20
2014,09,14,02,33,10.20
2014,09,14,02,34,10.20
2014,09,14,02,35,10.20
2014,09,14,02,36,10.20
2014,09,14,02,37,10.20
2014,09,14,02,38,10.20
2014,09,14,02,39,10.20
2014,09,14,02,40,10.30
2014,09,14,02,41,10.30
2014,09,14,02,42,10.40
2014,09,14,02,43,10.40
2014,09,14,02,44,10.40
2014,09,14,02,45,10.40
2014,09,14,02,46,10.40
2014,09,14,02,47,10.40
2014,09,14,02,48,10.40
2014,09,14,02,49,10.40
2014,09,14,02,50,10.40
2014,09,14,02,51,10.40
2014,09,14,02,52,10.40
2014,09,14,02,53,10.40
2014,09,14,02,54,10.40
2014,09,14,02,55,10.30
2014,09,14,02,56,10.30
2014,09,14,02,57,10.30
2014,09,14,02,58,10.20
2014,09,14,02,59,10.20
2014,09,14,03,00,10.20
2014,09,14,03,01,10.20
2014,09,14,03,02,10.20
2014,09,14,03,03,10.20
2014,09,14,03,04,10.20
2014,09,14,03,05,10.10
2014,09,14,03,06,10.10
2014,09,14,03,07,10.10
2014,09,14,03,08,10.10
2014,09,14,03,09,10.10
2014,09,14,03,10,10.10
2014,09,14,03,11,10.10
2014,09,14,03,12,10.10
2014,09,14,03,13,10.10
2014,09,14,03,14,10.10
2014,09,14,03,15,10.20
2014,09,14,03,16,10.20
2014,09,14,03,17,10.20
2014,09,14,03,18,10.20
2014,09,14,03,19,10.20
2014,09,14,03,20,10.20
2014,09,14,03,21,10.20
2014,09,14,03,22,10.20
2014,09,14,03,23,10.10
2014,09,14,03,24,10.10
2014,09,14,03,25,10.10
2014,09,14,03,26,10.10
2014,09,14,03,27,10.10
2014,09,14,03,28,10.10
2014,09,14,03,29,10.10
2014,09,14,03,30,10.00
2014,09,14,03,31,9.90
2014,09,14,03,32,9.90
2014,09,14,03,33,9.90
2014,09,14,03,34,9.90
2014,09,14,03,35,9.90
2014,09,14,03,36,9.90
2014,09,14,03,37,9.90
2014,09,14,03,38,9.90
2014,09,14,03,39,9.90
2014,09,14,03,40,9.80
2014,09,14,03,41,9.80
2014,09,14,03,42,9.80
2014,09,14,03,43,9.80
2014,09,14,03,44,9.80
2014,09,14,03,45,9.80
2014,09,14,03,46,9.80
2014,09,14,03,47,9.80
2014,09,14,03,48,9.80
2014,09,14,03,49,9.80
2014,09,14,03,50,9.70
2014,09,14,03,51,9.70
2014,09,14,03,52,9.70
2014,09,14,03,53,9.70
2014,09,14,03,54,9.70
2014,09,14,03,55,9.70
2014,09,14,03,56,9.70
2014,09,14,03,57,9.70
2014,09,14,03,58,9.70
2014,09,14,03,59,9.70
2014,09,14,04,00,9.70
2014,09,14,04,01,9.70
2014,09,14,04,02,9.70
2014,09,14,04,03,9.70
2014,09,14,04,04,9.70
2014,09,14,04,05,9.70
2014,09,14,04,06,9.70
2014,09,14,04,07,9.70
2014,09,14,04,08,9.70
2014,09,14,04,09,9.80
2014,09,14,04,10,9.80
2014,09,14,04,11,9.80
2014,09,14,04,12,9.80
2014,09,14,04,13,9.80
2014,09,14,04,14,9.80
2014,09,14,04,15,9.80
2014,09,14,04,16,9.80
2014,09,14,04,17,9.80
2014,09,14,04,18,9.80
2014,09,14,04,19,9.80
2014,09,14,04,20,9.80
2014,09,14,04,21,9.80
2014,09,14,04,22,9.80
2014,09,14,04,23,9.80
2014,09,14,04,24,9.80
2014,09,14,04,25,9.80
2014,09,14,04,26,9.80
2014,09,14,04,27,9.80
2014,09,14,04,28,9.80
2014,09,14,04,29,9.70
2014,09,14,04,30,9.70
2014,09,14,04,31,9.70
2014,09,14,04,32,9.70
2014,09,14,04,33,9.80
2014,09,14,04,34,9.80
2014,09,14,04,35,9.70
2014,09,14,04,36,9.70
2014,09,14,04,37,9.70
2014,09,14,04,38,9.70
2014,09,14,04,39,9.70
2014,09,14,04,40,9.70
2014,09,14,04,41,9.70
2014,09,14,04,42,9.70
2014,09,14,04,43,9.70
2014,09,14,04,44,9.70
2014,09,14,04,45,9.70
2014,09,14,04,46,9.60
2014,09,14,04,47,9.60
2014,09,14,04,48,9.60
2014,09,14,04,49,9.60
2014,09,14,04,50,9.60
2014,09,14,04,51,9.60
2014,09,14,04,52,9.60
2014,09,14,04,53,9.60
2014,09,14,04,54,9.60
2014,09,14,04,55,9.60
2014,09,14,04,56,9.50
2014,09,14,04,57,9.50
2014,09,14,04,58,9.50
2014,09,14,04,59,9.50
2014,09,14,05,00,9.50
2014,09,14,05,01,9.50
2014,09,14,05,02,9.40
2014,09,14,05,03,9.40
2014,09,14,05,04,9.40
2014,09,14,05,05,9.40
2014,09,14,05,06,9.40
2014,09,14,05,07,9.40
2014,09,14,05,08,9.40
2014,09,14,05,09,9.40
2014,09,14,05,10,9.40
2014,09,14,05,11,9.40
2014,09,14,05,12,9.40
2014,09,14,05,13,9.40
2014,09,14,05,14,9.40
2014,09,14,05,15,9.30
2014,09,14,05,16,9.30
2014,09,14,05,17,9.30
2014,09,14,05,18,9.30
2014,09,14,05,19,9.30
2014,09,14,05,20,9.20
2014,09,14,05,21,9.20
2014,09,14,05,22,9.20
2014,09,14,05,23,9.30
2014,09,14,05,24,9.30
2014,09,14,05,25,9.30
2014,09,14,05,26,9.20
2014,09,14,05,27,9.20
2014,09,14,05,28,9.20
2014,09,14,05,29,9.20
2014,09,14,05,30,9.20
2014,09,14,05,31,9.20
2014,09,14,05,32,9.20
2014,09,14,05,33,9.20
2014,09,14,05,34,9.20
2014,09,14,05,35,9.20
2014,09,14,05,36,9.20
2014,09,14,05,37,9.20
2014,09,14,05,38,9.20
2014,09,14,05,39,9.30
2014,09,14,05,40,9.30
2014,09,14,05,41,9.30
2014,09,14,05,42,9.30
2014,09,14,05,43,9.30
2014,09,14,05,44,9.20
2014,09,14,05,45,9.20
2014,09,14,05,46,9.20
2014,09,14,05,47,9.20
2014,09,14,05,48,9.20
2014,09,14,05,49,9.20
2014,09,14,05,50,9.20
2014,09,14,05,51,9.20
2014,09,14,05,52,9.10
2014,09,14,05,53,9.10
2014,09,14,05,54,9.00
2014,09,14,05,55,9.00
2014,09,14,05,56,9.00
2014,09,14,05,57,8.90
2014,09,14,05,58,8.90
2014,09,14,05,59,8.80
2014,09,14,06,00,8.80
2014,09,14,06,01,8.70
2014,09,14,06,02,8.70
2014,09,14,06,03,8.70
2014,09,14,06,04,8.70
2014,09,14,06,05,8.80
2014,09,14,06,06,8.80
2014,09,14,06,07,8.80
2014,09,14,06,08,8.80
2014,09,14,06,09,8.80
2014,09,14,06,10,8.80
2014,09,14,06,11,8.80
2014,09,14,06,12,8.90
2014,09,14,06,13,8.90
2014,09,14,06,14,8.80
2014,09,14,06,15,8.80
2014,09,14,06,16,8.80
2014,09,14,06,17,8.80
2014,09,14,06,18,8.80
2014,09,14,06,19,8.80
2014,09,14,06,20,8.70
2014,09,14,06,21,8.70
2014,09,14,06,22,8.70
2014,09,14,06,23,8.70
2014,09,14,06,24,8.70
2014,09,14,06,25,8.70
2014,09,14,06,26,8.70
2014,09,14,06,27,8.70
2014,09,14,06,28,8.70
2014,09,14,06,29,8.70
2014,09,14,06,30,8.80
2014,09,14,06,31,8.80
2014,09,14,06,32,8.80
2014,09,14,06,33,8.80
2014,09,14,06,34,8.90
2014,09,14,06,35,8.90
2014,09,14,06,36,8.90
2014,09,14,06,37,8.90
2014,09,14,06,38,8.90
2014,09,14,06,39,8.90
2014,09,14,06,40,8.90
2014,09,14,06,41,8.90
2014,09,14,06,42,8.90
2014,09,14,06,43,8.90
2014,09,14,06,44,8.90
2014,09,14,06,45,8.90
2014,09,14,06,46,8.90
2014,09,14,06,47,8.90
2014,09,14,06,48,8.90
2014,09,14,06,49,8.90
2014,09,14,06,50,8.90
2014,09,14,06,51,8.80
2014,09,14,06,52,8.80
2014,09,14,06,53,8.80
2014,09,14,06,54,8.80
2014,09,14,06,55,8.80
2014,09,14,06,56,8.80
2014,09,14,06,57,8.80
2014,09,14,06,58,8.80
2014,09,14,06,59,8.80
2014,09,14,07,00,8.90
2014,09,14,07,01,8.90
2014,09,14,07,02,8.90
2014,09,14,07,03,8.90
2014,09,14,07,04,8.90
2014,09,14,07,05,9.00
2014,09,14,07,06,9.00
2014,09,14,07,07,9.00
2014,09,14,07,08,9.00
2014,09,14,07,09,9.00
2014,09,14,07,10,9.00
2014,09,14,07,11,9.00
2014,09,14,07,12,9.00
2014,09,14,07,13,9.00
2014,09,14,07,14,9.00
2014,09,14,07,15,9.00
2014,09,14,07,16,9.00
2014,09,14,07,17,9.00
2014,09,14,07,18,9.00
2014,09,14,07,19,9.00
2014,09,14,07,20,9.00
2014,09,14,07,21,9.00
2014,09,14,07,22,9.00
2014,09,14,07,23,9.00
2014,09,14,07,24,9.00
2014,09,14,07,25,9.00
2014,09,14,07,26,9.00
2014,09,14,07,27,9.00
2014,09,14,07,28,8.90
2014,09,14,07,29,8.90
2014,09,14,07,30,8.90
2014,09,14,07,31,8.90
2014,09,14,07,32,8.90
2014,09,14,07,33,8.90
2014,09,14,07,34,9.00
2014,09,14,07,35,9.00
2014,09,14,07,36,9.00
2014,09,14,07,37,9.10
2014,09,14,07,38,9.10
2014,09,14,07,39,9.10
2014,09,14,07,40,9.20
2014,09,14,07,41,9.20
2014,09,14,07,42,9.20
2014,09,14,07,43,9.30
2014,09,14,07,44,9.40
2014,09,14,07,45,9.50
2014,09,14,07,46,9.60
2014,09,14,07,47,9.70
2014,09,14,07,48,9.90
2014,09,14,07,49,10.00
2014,09,14,07,50,10.10
2014,09,14,07,51,10.10
2014,09,14,07,52,10.20
2014,09,14,07,53,10.20
2014,09,14,07,54,10.20
2014,09,14,07,55,10.30
2014,09,14,07,56,10.30
2014,09,14,07,57,10.30
2014,09,14,07,58,10.30
2014,09,14,07,59,10.40
2014,09,14,08,00,10.40
2014,09,14,08,01,10.40
2014,09,14,08,02,10.50
2014,09,14,08,03,10.60
2014,09,14,08,04,10.60
2014,09,14,08,05,10.60
2014,09,14,08,06,10.70
2014,09,14,08,07,10.80
2014,09,14,08,08,10.90
2014,09,14,08,09,11.00
2014,09,14,08,10,11.10
2014,09,14,08,11,11.20
2014,09,14,08,12,11.30
2014,09,14,08,13,11.40
2014,09,14,08,14,11.50
2014,09,14,08,15,11.70
2014,09,14,08,16,11.80
2014,09,14,08,17,11.90
2014,09,14,08,18,12.10
2014,09,14,08,19,12.20
2014,09,14,08,20,12.30
2014,09,14,08,21,12.50
2014,09,14,08,22,12.60
2014,09,14,08,23,12.80
2014,09,14,08,24,12.90
2014,09,14,08,25,13.10
2014,09,14,08,26,13.30
2014,09,14,08,27,13.50
2014,09,14,08,28,13.70
2014,09,14,08,29,13.90
2014,09,14,08,30,14.10
2014,09,14,08,31,14.30
2014,09,14,08,32,14.50
2014,09,14,08,33,14.70
2014,09,14,08,34,14.90
2014,09,14,08,35,15.10
2014,09,14,08,36,15.30
2014,09,14,08,37,15.50
2014,09,14,08,38,15.60
2014,09,14,08,39,15.80
2014,09,14,08,40,16.00
2014,09,14,08,41,16.10
2014,09,14,08,42,16.30
2014,09,14,08,43,16.50
2014,09,14,08,44,16.60
2014,09,14,08,45,16.70
2014,09,14,08,46,16.90
2014,09,14,08,47,17.00
2014,09,14,08,48,17.00
2014,09,14,08,49,17.20
2014,09,14,08,50,17.30
2014,09,14,08,51,17.30
2014,09,14,08,52,17.40
2014,09,14,08,53,17.40
2014,09,14,08,54,17.50
2014,09,14,08,55,17.50
2014,09,14,08,56,17.60
2014,09,14,08,57,17.60
2014,09,14,08,58,17.60
2014,09,14,08,59,17.70
2014,09,14,09,00,17.70
2014,09,14,09,01,17.80
2014,09,14,09,02,17.80
2014,09,14,09,03,17.80
2014,09,14,09,04,17.90
2014,09,14,09,05,17.90
2014,09,14,09,06,17.90
2014,09,14,09,07,18.00
2014,09,14,09,08,18.10
2014,09,14,09,09,18.20
2014,09,14,09,10,18.20
2014,09,14,09,11,18.20
2014,09,14,09,12,18.30
2014,09,14,09,13,18.30
2014,09,14,09,14,18.40
2014,09,14,09,15,18.40
2014,09,14,09,16,18.40
2014,09,14,09,17,18.40
2014,09,14,09,18,18.40
2014,09,14,09,19,18.40
2014,09,14,09,20,18.50
2014,09,14,09,21,18.50
2014,09,14,09,22,18.50
2014,09,14,09,23,18.60
2014,09,14,09,24,18.60
2014,09,14,09,25,18.60
2014,09,14,09,26,18.70
2014,09,14,09,27,18.70
2014,09,14,09,28,18.70
2014,09,14,09,29,18.70
2014,09,14,09,30,18.70
2014,09,14,09,31,18.70
2014,09,14,09,32,18.70
2014,09,14,09,33,18.80
2014,09,14,09,34,18.80
2014,09,14,09,35,18.90
2014,09,14,09,36,18.90
2014,09,14,09,37,19.00
2014,09,14,09,38,19.10
2014,09,14,09,39,19.10
2014,09,14,09,40,19.20
2014,09,14,09,41,19.20
2014,09,14,09,42,19.20
2014,09,14,09,43,19.20
2014,09,14,09,44,19.30
2014,09,14,09,45,19.30
2014,09,14,09,46,19.30
2014,09,14,09,47,19.40
2014,09,14,09,48,19.40
2014,09,14,09,49,19.50
2014,09,14,09,50,19.50
2014,09,14,09,51,19.50
2014,09,14,09,52,19.60
2014,09,14,09,53,19.60
2014,09,14,09,54,19.70
2014,09,14,09,55,19.70
2014,09,14,09,56,19.70
2014,09,14,09,57,19.70
2014,09,14,09,58,19.80
2014,09,14,09,59,19.80
2014,09,14,10,00,19.80
2014,09,14,10,01,19.80
2014,09,14,10,02,19.80
2014,09,14,10,03,19.80
2014,09,14,10,04,19.80
2014,09,14,10,05,19.80
2014,09,14,10,06,19.70
2014,09,14,10,07,19.70
2014,09,14,10,08,19.70
2014,09,14,10,09,19.70
2014,09,14,10,10,19.80
2014,09,14,10,11,19.80
2014,09,14,10,12,19.80
2014,09,14,10,13,19.70
2014,09,14,10,14,19.70
2014,09,14,10,15,19.70
2014,09,14,10,16,19.70
2014,09,14,10,17,19.80
2014,09,14,10,18,19.80
2014,09,14,10,19,19.90
2014,09,14,10,20,19.90
2014,09,14,10,21,19.90
2014,09,14,10,22,20.00
2014,09,14,10,23,20.10
2014,09,14,10,24,20.20
2014,09,14,10,25,20.20
2014,09,14,10,26,20.20
2014,09,14,10,27,20.20
2014,09,14,10,28,20.20
2014,09,14,10,29,20.20
2014,09,14,10,30,20.30
2014,09,14,10,31,20.30
2014,09,14,10,32,20.30
2014,09,14,10,33,20.30
2014,09,14,10,34,20.30
2014,09,14,10,35,20.30
2014,09,14,10,36,20.40
2014,09,14,10,37,20.40
2014,09,14,10,38,20.50
2014,09,14,10,39,20.60
2014,09,14,10,40,20.60
2014,09,14,10,41,20.70
2014,09,14,10,42,20.70
2014,09,14,10,43,20.70
2014,09,14,10,44,20.70
2014,09,14,10,45,20.70
2014,09,14,10,46,20.80
2014,09,14,10,47,20.80
2014,09,14,10,48,20.80
2014,09,14,10,49,20.90
2014,09,14,10,50,20.90
2014,09,14,10,51,21.00
2014,09,14,10,52,21.00
2014,09,14,10,53,21.00
2014,09,14,10,54,21.00
2014,09,14,10,55,21.00
2014,09,14,10,56,21.00
2014,09,14,10,57,21.00
2014,09,14,10,58,21.00
2014,09,14,10,59,21.00
2014,09,14,11,00,21.10
2014,09,14,11,01,21.20
2014,09,14,11,02,21.20
2014,09,14,11,03,21.30
2014,09,14,11,04,21.30
2014,09,14,11,05,21.30
2014,09,14,11,06,21.30
2014,09,14,11,07,21.30
2014,09,14,11,08,21.20
2014,09,14,11,09,21.20
2014,09,14,11,10,21.20
2014,09,14,11,11,21.20
2014,09,14,11,12,21.20
2014,09,14,11,13,21.30
2014,09,14,11,14,21.30
2014,09,14,11,15,21.40
2014,09,14,11,16,21.40
2014,09,14,11,17,21.30
2014,09,14,11,18,21.30
2014,09,14,11,19,21.30
2014,09,14,11,20,21.40
2014,09,14,11,21,21.40
2014,09,14,11,22,21.60
2014,09,14,11,23,21.60
2014,09,14,11,24,21.70
2014,09,14,11,25,21.70
2014,09,14,11,26,21.80
2014,09,14,11,27,21.80
2014,09,14,11,28,21.80
2014,09,14,11,29,21.80
2014,09,14,11,30,21.80
2014,09,14,11,31,21.80
2014,09,14,11,32,21.80
2014,09,14,11,33,21.80
2014,09,14,11,34,21.70
2014,09,14,11,35,21.70
2014,09,14,11,36,21.70
2014,09,14,11,37,21.80
2014,09,14,11,38,21.80
2014,09,14,11,39,21.80
2014,09,14,11,40,21.80
2014,09,14,11,41,21.80
2014,09,14,11,42,21.80
2014,09,14,11,43,21.80
2014,09,14,11,44,21.90
2014,09,14,11,45,22.00
2014,09,14,11,46,22.10
2014,09,14,11,47,22.20
2014,09,14,11,48,22.30
2014,09,14,11,49,22.30
2014,09,14,11,50,22.30
2014,09,14,11,51,22.40
2014,09,14,11,52,22.50
2014,09,14,11,53,22.50
2014,09,14,11,54,22.50
2014,09,14,11,55,22.50
2014,09,14,11,56,22.40
2014,09,14,11,57,22.30
2014,09,14,11,58,22.30
2014,09,14,11,59,22.30
2014,09,14,12,00,22.20
2014,09,14,12,01,22.30
2014,09,14,12,02,22.30
2014,09,14,12,03,22.30
2014,09,14,12,04,22.40
2014,09,14,12,05,22.40
2014,09,14,12,06,22.40
2014,09,14,12,07,22.30
2014,09,14,12,08,22.30
2014,09,14,12,09,22.20
2014,09,14,12,10,22.20
2014,09,14,12,11,22.30
2014,09,14,12,12,22.20
2014,09,14,12,13,22.20
2014,09,14,12,14,22.20
2014,09,14,12,15,22.30
2014,09,14,12,16,22.30
2014,09,14,12,17,22.40
2014,09,14,12,18,22.50
2014,09,14,12,19,22.60
2014,09,14,12,20,22.60
2014,09,14,12,21,22.70
2014,09,14,12,22,22.70
2014,09,14,12,23,22.70
2014,09,14,12,24,22.70
2014,09,14,12,25,22.70
2014,09,14,12,26,22.70
2014,09,14,12,27,22.70
2014,09,14,12,28,22.80
2014,09,14,12,29,22.80
2014,09,14,12,30,22.80
2014,09,14,12,31,22.80
2014,09,14,12,32,22.80
2014,09,14,12,33,22.80
2014,09,14,12,34,22.80
2014,09,14,12,35,22.80
2014,09,14,12,36,22.80
2014,09,14,12,37,22.80
2014,09,14,12,38,22.80
2014,09,14,12,39,22.70
2014,09,14,12,40,22.70
2014,09,14,12,41,22.70
2014,09,14,12,42,22.80
2014,09,14,12,43,22.80
2014,09,14,12,44,22.90
2014,09,14,12,45,22.90
2014,09,14,12,46,23.00
2014,09,14,12,47,23.10
2014,09,14,12,48,23.10
2014,09,14,12,49,23.20
2014,09,14,12,50,23.20
2014,09,14,12,51,23.20
2014,09,14,12,52,23.10
2014,09,14,12,53,23.20
2014,09,14,12,54,23.20
2014,09,14,12,55,23.20
2014,09,14,12,56,23.20
2014,09,14,12,57,23.30
2014,09,14,12,58,23.30
2014,09,14,12,59,23.30
2014,09,14,13,00,23.30
2014,09,14,13,01,23.30
2014,09,14,13,02,23.30
2014,09,14,13,03,23.30
2014,09,14,13,04,23.30
2014,09,14,13,05,23.40
2014,09,14,13,06,23.50
2014,09,14,13,07,23.60
2014,09,14,13,08,23.70
2014,09,14,13,09,23.70
2014,09,14,13,10,23.70
2014,09,14,13,11,23.70
2014,09,14,13,12,23.70
2014,09,14,13,13,23.70
2014,09,14,13,14,23.80
2014,09,14,13,15,23.90
2014,09,14,13,16,24.00
2014,09,14,13,17,24.10
2014,09,14,13,18,24.20
2014,09,14,13,19,24.30
2014,09,14,13,20,24.40
2014,09,14,13,21,24.50
2014,09,14,13,22,24.50
2014,09,14,13,23,24.50
2014,09,14,13,24,24.40
2014,09,14,13,25,24.40
2014,09,14,13,26,24.40
2014,09,14,13,27,24.40
2014,09,14,13,28,24.40
2014,09,14,13,29,24.50
2014,09,14,13,30,24.60
2014,09,14,13,31,24.60
2014,09,14,13,32,24.60
2014,09,14,13,33,24.60
2014,09,14,13,34,24.60
2014,09,14,13,35,24.50
2014,09,14,13,36,24.50
2014,09,14,13,37,24.40
2014,09,14,13,38,24.20
2014,09,14,13,39,24.20
2014,09,14,13,40,24.10
2014,09,14,13,41,24.10
2014,09,14,13,42,24.30
2014,09,14,13,43,24.30
2014,09,14,13,44,24.30
2014,09,14,13,45,24.30
2014,09,14,13,46,24.40
2014,09,14,13,47,24.50
2014,09,14,13,48,24.50
2014,09,14,13,49,24.50
2014,09,14,13,50,24.50
2014,09,14,13,51,24.50
2014,09,14,13,52,24.50
2014,09,14,13,53,24.40
2014,09,14,13,54,24.20
2014,09,14,13,55,24.10
2014,09,14,13,56,24.10
2014,09,14,13,57,24.00
2014,09,14,13,58,23.90
2014,09,14,13,59,23.90
2014,09,14,14,00,23.90
2014,09,14,14,01,23.90
2014,09,14,14,02,23.90
2014,09,14,14,03,23.90
2014,09,14,14,04,24.00
2014,09,14,14,05,24.10
2014,09,14,14,06,24.10
2014,09,14,14,07,24.10
2014,09,14,14,08,24.10
2014,09,14,14,09,24.10
2014,09,14,14,10,24.10
2014,09,14,14,11,24.20
2014,09,14,14,12,24.20
2014,09,14,14,13,24.20
2014,09,14,14,14,24.20
2014,09,14,14,15,24.20
2014,09,14,14,16,24.20
2014,09,14,14,17,24.20
2014,09,14,14,18,24.20
2014,09,14,14,19,24.30
2014,09,14,14,20,24.30
2014,09,14,14,21,24.30
2014,09,14,14,22,24.30
2014,09,14,14,23,24.30
2014,09,14,14,24,24.30
2014,09,14,14,25,24.40
2014,09,14,14,26,24.40
2014,09,14,14,27,24.40
2014,09,14,14,28,24.50
2014,09,14,14,29,24.50
2014,09,14,14,30,24.50
2014,09,14,14,31,24.60
2014,09,14,14,32,24.70
2014,09,14,14,33,24.80
2014,09,14,14,34,24.90
2014,09,14,14,35,24.90
2014,09,14,14,36,25.00
2014,09,14,14,37,25.10
2014,09,14,14,38,25.10
2014,09,14,14,39,25.20
2014,09,14,14,40,25.20
2014,09,14,14,41,25.30
2014,09,14,14,42,25.40
2014,09,14,14,43,25.50
2014,09,14,14,44,25.50
2014,09,14,14,45,25.40
2014,09,14,14,46,25.40
2014,09,14,14,47,25.50
2014,09,14,14,48,25.50
2014,09,14,14,49,25.40
2014,09,14,14,50,25.40
2014,09,14,14,51,25.30
2014,09,14,14,52,25.20
2014,09,14,14,53,25.20
2014,09,14,14,54,25.20
2014,09,14,14,55,25.20
2014,09,14,14,56,25.10
2014,09,14,14,57,25.10
2014,09,14,14,58,25.20
2014,09,14,14,59,25.10
2014,09,14,15,00,25.00
2014,09,14,15,01,25.00
2014,09,14,15,02,25.00
2014,09,14,15,03,25.00
2014,09,14,15,04,25.00
2014,09,14,15,05,25.00
2014,09,14,15,06,25.00
2014,09,14,15,07,25.00
2014,09,14,15,08,24.90
2014,09,14,15,09,25.00
2014,09,14,15,10,25.10
2014,09,14,15,11,25.10
2014,09,14,15,12,25.10
2014,09,14,15,13,25.10
2014,09,14,15,14,25.00
2014,09,14,15,15,25.00
2014,09,14,15,16,25.00
2014,09,14,15,17,25.00
2014,09,14,15,18,25.00
2014,09,14,15,19,25.00
2014,09,14,15,20,25.00
2014,09,14,15,21,25.10
2014,09,14,15,22,25.20
2014,09,14,15,23,25.20
2014,09,14,15,24,25.30
2014,09,14,15,25,25.40
2014,09,14,15,26,25.40
2014,09,14,15,27,25.40
2014,09,14,15,28,25.40
2014,09,14,15,29,25.40
2014,09,14,15,30,25.30
2014,09,14,15,31,25.30
2014,09,14,15,32,25.40
2014,09,14,15,33,25.40
2014,09,14,15,34,25.50
2014,09,14,15,35,25.60
2014,09,14,15,36,25.70
2014,09,14,15,37,25.80
2014,09,14,15,38,25.90
2014,09,14,15,39,26.00
2014,09,14,15,40,26.00
2014,09,14,15,41,26.10
2014,09,14,15,42,26.20
2014,09,14,15,43,26.30
2014,09,14,15,44,26.40
2014,09,14,15,45,26.50
2014,09,14,15,46,26.60
2014,09,14,15,47,26.60
2014,09,14,15,48,26.60
2014,09,14,15,49,26.60
2014,09,14,15,50,26.60
2014,09,14,15,51,26.60
2014,09,14,15,52,26.60
2014,09,14,15,53,26.50
2014,09,14,15,54,26.40
2014,09,14,15,55,26.40
2014,09,14,15,56,26.40
2014,09,14,15,57,26.20
2014,09,14,15,58,26.00
2014,09,14,15,59,26.00
2014,09,14,16,00,25.90
2014,09,14,16,01,25.90
2014,09,14,16,02,25.80
2014,09,14,16,03,25.80
2014,09,14,16,04,25.90
2014,09,14,16,05,25.90
2014,09,14,16,06,26.00
2014,09,14,16,07,26.10
2014,09,14,16,08,26.10
2014,09,14,16,09,26.20
2014,09,14,16,10,26.20
2014,09,14,16,11,26.20
2014,09,14,16,12,26.20
2014,09,14,16,13,26.10
2014,09,14,16,14,26.00
2014,09,14,16,15,25.90
2014,09,14,16,16,25.80
2014,09,14,16,17,25.80
2014,09,14,16,18,25.80
2014,09,14,16,19,25.90
2014,09,14,16,20,25.90
2014,09,14,16,21,25.90
2014,09,14,16,22,25.90
2014,09,14,16,23,25.80
2014,09,14,16,24,25.70
2014,09,14,16,25,25.70
2014,09,14,16,26,25.60
2014,09,14,16,27,25.60
2014,09,14,16,28,25.60
2014,09,14,16,29,25.60
2014,09,14,16,30,25.60
2014,09,14,16,31,25.50
2014,09,14,16,32,25.50
2014,09,14,16,33,25.50
2014,09,14,16,34,25.60
2014,09,14,16,35,25.70
2014,09,14,16,36,25.80
2014,09,14,16,37,25.90
2014,09,14,16,38,25.90
2014,09,14,16,39,26.00
2014,09,14,16,40,25.90
2014,09,14,16,41,25.90
2014,09,14,16,42,25.90
2014,09,14,16,43,25.90
2014,09,14,16,44,25.90
2014,09,14,16,45,25.90
2014,09,14,16,46,25.90
2014,09,14,16,47,25.90
2014,09,14,16,48,26.00
2014,09,14,16,49,26.00
2014,09,14,16,50,26.10
2014,09,14,16,51,26.10
2014,09,14,16,52,26.10
2014,09,14,16,53,26.20
2014,09,14,16,54,26.20
2014,09,14,16,55,26.20
2014,09,14,16,56,26.10
2014,09,14,16,57,26.00
2014,09,14,16,58,26.00
2014,09,14,16,59,26.00
2014,09,14,17,00,26.00
2014,09,14,17,01,25.90
2014,09,14,17,02,25.80
2014,09,14,17,03,25.70
2014,09,14,17,04,25.70
2014,09,14,17,05,25.70
2014,09,14,17,06,25.70
2014,09,14,17,07,25.80
2014,09,14,17,08,25.80
2014,09,14,17,09,25.80
2014,09,14,17,10,25.80
2014,09,14,17,11,25.80
2014,09,14,17,12,25.80
2014,09,14,17,13,25.90
2014,09,14,17,14,25.90
2014,09,14,17,15,25.90
2014,09,14,17,16,25.90
2014,09,14,17,17,25.80
2014,09,14,17,18,25.80
2014,09,14,17,19,25.80
2014,09,14,17,20,25.80
2014,09,14,17,21,25.80
2014,09,14,17,22,25.80
2014,09,14,17,23,25.80
2014,09,14,17,24,25.80
2014,09,14,17,25,25.70
2014,09,14,17,26,25.70
2014,09,14,17,27,25.70
2014,09,14,17,28,25.80
2014,09,14,17,29,25.80
2014,09,14,17,30,25.90